Location: Elaine Barite Prospect
(34.1431°N, 106.7922°W)
Time: 05:57:52
(UTC+00:00)

COSMO-SKYMED 1 - Pass Details

Date: 13 December 2025
Orbit: 578 x 580 km, 97.9° (Epoch: 12 January)

Event Time Altitude Azimuth Distance (km) Brightness Sun altitude
Rises 12:39:23 0° 165° (SSE) 2,784 6.4 -17.1°
Reaches altitude 10° 12:41:31 10° 165° (SSE) 1,889 5.5 -16.7°
Maximum altitude 12:45:37 85° 78° (ENE) 587 2.4 -15.9°
Drops below altitude 10° 12:49:44 10° 349° (N) 1,901 4.8 -15.1°
Enters shadow 12:50:47 - 349° (N) 2,336 5.2 -14.9°
